Ottumwa, IA

7:43 AM CDT on May 24, 2017 (GMT -0500)
Ottumwa Industrial

Weather History for KOTM - February, 2014

Change the Weather History Date:

Wednesday, February 5, 2014

  Actual Average Record
Temperature  
Mean Temperature 6 °F 24 °F  
Max Temperature 14 °F 33 °F 67 °F (1946)
Min Temperature -3 °F 15 °F -28 °F (1936)
Degree Days  
Heating Degree Days 59 41  
Month to date heating degree days 271 206  
Since 1 July heating degree days 4435 4028  
Cooling Degree Days 0 0  
Month to date cooling degree days 0 0  
Year to date cooling degree days 0 0  
Moisture  
Dew Point 1 °F    
Average Humidity 78    
Maximum Humidity 88    
Minimum Humidity 68    
Precipitation  
Precipitation T in 0.03 in 1.50 in (1911)
Month to date precipitation 0.11 0.15  
Year to date precipitation 0.23 1.05  
Sea Level Pressure  
Sea Level Pressure 30.40 in    
Wind  
Wind Speed 19 mph (NW)    
Max Wind Speed 28 mph    
Max Gust Speed 33 mph    
Visibility 4 miles    
Events Snow    
T = Trace of Precipitation, MM = Missing Value Source: NWS Daily Summary

Daily Weather History Graph

Daily Weather History Graph

Search for Another Location

Airport or City:

Trip Planner

Search our weather history database for the weather conditions in past years. The results will help you decide how hot, cold, wet, or windy it might be!

Date:

Astronomy

Feb. 05, 2014 Rise Set
Actual Time 7:16 AM CST 5:31 PM CST
Civil Twilight 6:47 AM CST 6:00 PM CST
Nautical Twilight 6:14 AM CST 6:33 PM CST
Astronomical Twilight 5:42 AM CST 7:05 PM CST
Moon 10:27 AM CST (2/5) No Moon Set
Length of Visible Light 11h 13m
Length of Day
10h 15m
Waxing Crescent, 39% of the Moon is Illuminated
Feb 5
Waxing Crescent
Feb 6
First Quarter
Feb 14
Full
Feb 22
Last Quarter
Mar 1
New

Hourly Weather History & Observations

Time (CST) Temp. Windchill Dew Point Humidity Pressure Visibility Wind Dir Wind Speed Gust Speed Precip Events Conditions
12:32 AM 14.0 °F -4.3 °F 10.0 °F 84% 30.19 in 1.2 mi North 21.9 mph - 0.00 in Snow Light Snow
12:49 AM 14.0 °F -4.3 °F 10.4 °F 86% 30.19 in 1.2 mi North 21.9 mph - 0.00 in Snow Light Snow
12:53 AM 14.0 °F -4.7 °F 10.0 °F 84% 30.23 in 1.2 mi North 23.0 mph - 0.00 in Snow Light Snow
1:09 AM 14.0 °F -4.7 °F 10.0 °F 84% 30.19 in 1.8 mi North 23.0 mph - 0.00 in Snow Light Snow
1:18 AM 14.0 °F -4.7 °F 10.0 °F 84% 30.18 in 2.0 mi North 23.0 mph - 0.00 in Snow Light Snow
1:38 AM 12.9 °F -5.3 °F 9.0 °F 84% 30.19 in 3.0 mi NNW 20.7 mph - 0.00 in Snow Light Snow
1:53 AM 12.9 °F -5.7 °F 9.0 °F 84% 30.24 in 2.5 mi NNW 21.9 mph - 0.00 in Snow Light Snow
2:05 AM 12.9 °F -6.1 °F 8.1 °F 81% 30.20 in 1.8 mi NNW 23.0 mph - 0.00 in Snow Light Snow
2:15 AM 12.0 °F -7.3 °F 8.1 °F 84% 30.20 in 1.8 mi NNW 23.0 mph - 0.00 in Snow Light Snow
2:37 AM 12.0 °F -7.3 °F 7.0 °F 80% 30.21 in 2.0 mi NNW 23.0 mph - 0.00 in Snow Light Snow
2:53 AM 10.9 °F -7.9 °F 7.0 °F 84% 30.26 in 1.5 mi NNW 20.7 mph - 0.00 in Snow Light Snow
3:24 AM 10.0 °F -11.1 °F 6.1 °F 84% 30.22 in 2.0 mi NNW 26.5 mph 32.2 mph 0.00 in Snow Light Snow
3:40 AM 10.0 °F -10.0 °F 5.0 °F 80% 30.23 in 3.0 mi NNW 23.0 mph - 0.00 in Snow Light Snow
3:53 AM 9.0 °F -12.2 °F 5.0 °F 84% 30.28 in 2.5 mi NNW 25.3 mph - 0.00 in Snow Light Snow
4:13 AM 9.0 °F -10.5 °F 5.0 °F 84% 30.24 in 2.0 mi NNW 20.7 mph - 0.00 in Snow Light Snow
4:22 AM 9.0 °F -11.8 °F 3.9 °F 80% 30.25 in 1.5 mi NNW 24.2 mph 31.1 mph 0.00 in Snow Light Snow
4:44 AM 9.0 °F -12.2 °F 3.9 °F 80% 30.26 in 2.0 mi NNW 25.3 mph 33.4 mph 0.00 in Snow Light Snow
4:53 AM 9.0 °F -11.4 °F 3.9 °F 80% 30.31 in 2.0 mi NNW 23.0 mph 31.1 mph 0.00 in Snow Light Snow
5:14 AM 8.1 °F -13.0 °F 3.0 °F 80% 30.27 in 1.5 mi NNW 24.2 mph 31.1 mph 0.00 in Snow Light Snow
5:44 AM 8.1 °F -12.2 °F 3.0 °F 80% 30.29 in 2.5 mi NNW 21.9 mph - 0.00 in Snow Light Snow
5:53 AM 7.0 °F -14.0 °F 1.9 °F 80% 30.34 in 2.0 mi NNW 23.0 mph - 0.00 in Snow Light Snow
6:15 AM 7.0 °F -13.6 °F 1.9 °F 80% 30.32 in 1.8 mi NNW 21.9 mph 28.8 mph 0.00 in Snow Light Snow
6:24 AM 7.0 °F -14.9 °F 1.9 °F 80% 30.31 in 2.0 mi NNW 25.3 mph 29.9 mph 0.00 in Snow Light Snow
6:42 AM 7.0 °F -14.5 °F 1.9 °F 80% 30.33 in 2.0 mi NNW 24.2 mph 28.8 mph 0.00 in Snow Light Snow
6:53 AM 6.1 °F -15.7 °F 1.0 °F 80% 30.38 in 2.0 mi NNW 24.2 mph - 0.00 in Snow Light Snow
7:04 AM 6.1 °F -14.8 °F 1.0 °F 80% 30.34 in 1.8 mi NW 21.9 mph - 0.00 in Snow Light Snow
7:53 AM 6.1 °F -14.8 °F 1.0 °F 80% 30.43 in 1.0 mi NNW 21.9 mph - 0.00 in Snow Light Snow
8:18 AM 6.1 °F -14.8 °F 1.0 °F 80% 30.38 in 2.5 mi NNW 21.9 mph 26.5 mph 0.00 in Snow Light Snow
8:38 AM 6.1 °F -14.8 °F 1.0 °F 80% 30.39 in 1.8 mi NNW 21.9 mph - 0.00 in Snow Light Snow
8:46 AM 6.1 °F -13.8 °F -0.0 °F 76% 30.40 in 3.0 mi NNW 19.6 mph - 0.00 in Snow Light Snow
8:53 AM 5.0 °F -15.2 °F -0.0 °F 80% 30.45 in 2.5 mi NNW 19.6 mph - 0.00 in Snow Light Snow
9:02 AM 5.0 °F -15.2 °F -0.0 °F 80% 30.41 in 5.0 mi NNW 19.6 mph - 0.00 in Snow Light Snow
9:27 AM 6.1 °F -13.8 °F -0.0 °F 76% 30.43 in 2.0 mi NNW 19.6 mph - 0.00 in Snow Light Snow
9:43 AM 6.1 °F -14.3 °F -0.0 °F 76% 30.44 in 4.0 mi NNW 20.7 mph 27.6 mph 0.00 in Snow Light Snow
9:53 AM 6.1 °F -14.3 °F -0.0 °F 76% 30.48 in 3.0 mi NNW 20.7 mph - 0.00 in Snow Light Snow
10:05 AM 6.1 °F -14.8 °F -0.0 °F 76% 30.45 in 2.0 mi NW 21.9 mph 28.8 mph 0.00 in Snow Light Snow
10:39 AM 6.1 °F -15.7 °F -0.9 °F 73% 30.45 in 3.0 mi NW 24.2 mph - 0.00 in Snow Light Snow
10:51 AM 6.8 °F -13.4 °F -0.4 °F 72% 30.45 in 2.5 mi NW 20.7 mph - 0.00 in Snow Light Snow
10:53 AM 6.1 °F -14.3 °F -0.0 °F 76% 30.50 in 2.5 mi NW 20.7 mph - 0.00 in Snow Light Snow
11:01 AM 6.1 °F -14.3 °F -0.0 °F 76% 30.46 in 2.0 mi NW 20.7 mph - 0.00 in Snow Light Snow
11:13 AM 6.1 °F -15.7 °F -0.9 °F 73% 30.46 in 4.0 mi NW 24.2 mph - 0.00 in Snow Blowing Snow
11:39 AM 7.0 °F -14.0 °F -0.0 °F 73% 30.45 in 2.0 mi NNW 23.0 mph - 0.00 in Snow Blowing Snow
11:53 AM 7.0 °F -14.0 °F -0.9 °F 70% 30.51 in 6.0 mi NW 23.0 mph 28.8 mph 0.00 in Snow Blowing Snow
12:53 PM 7.0 °F -14.5 °F -0.0 °F 73% 30.50 in 6.0 mi NW 24.2 mph - 0.00 in   Haze
1:27 PM 8.1 °F -13.4 °F -0.9 °F 67% 30.47 in 8.0 mi NW 25.3 mph 29.9 mph N/A   Mostly Cloudy
1:43 PM 8.1 °F -12.2 °F -0.0 °F 70% 30.46 in 6.0 mi NW 21.9 mph - N/A Snow Blowing Snow
1:53 PM 8.1 °F -13.0 °F -0.0 °F 70% 30.52 in 4.0 mi NW 24.2 mph - N/A Snow Blowing Snow
2:19 PM 8.1 °F -10.7 °F -0.0 °F 70% 30.48 in 8.0 mi WNW 18.4 mph 26.5 mph N/A   Mostly Cloudy
2:53 PM 7.0 °F -12.6 °F -0.9 °F 70% 30.53 in 9.0 mi NW 19.6 mph - 0.00 in   Mostly Cloudy
3:06 PM 7.0 °F -13.6 °F -0.9 °F 70% 30.49 in 10.0 mi NW 21.9 mph - N/A   Mostly Cloudy
3:23 PM 8.1 °F -12.2 °F -0.9 °F 67% 30.50 in 10.0 mi NW 21.9 mph 27.6 mph N/A   Mostly Cloudy
3:53 PM 7.0 °F -11.6 °F -0.9 °F 70% 30.57 in 6.0 mi NW 17.3 mph 27.6 mph 0.00 in Snow Light Snow
4:51 PM 6.8 °F -11.3 °F -2.2 °F 67% 30.52 in 10.0 mi NW 16.1 mph - 0.00 in   Partly Cloudy
4:53 PM 6.1 °F -12.8 °F -2.9 °F 67% 30.58 in 10.0 mi NW 17.3 mph - 0.00 in   Partly Cloudy
5:08 PM 5.0 °F -13.6 °F -4.0 °F 66% 30.53 in 10.0 mi NW 16.1 mph - N/A   Mostly Cloudy
5:33 PM 3.9 °F -13.7 °F -5.1 °F 66% 30.53 in 10.0 mi NW 13.8 mph - N/A   Partly Cloudy
5:53 PM 3.9 °F -13.7 °F -5.1 °F 66% 30.61 in 10.0 mi NW 13.8 mph - N/A   Clear
6:53 PM 3.0 °F -13.3 °F -6.0 °F 66% 30.62 in 10.0 mi WNW 11.5 mph - N/A   Clear
7:53 PM 1.9 °F -14.7 °F -7.1 °F 66% 30.62 in 10.0 mi NW 11.5 mph - N/A   Clear
8:53 PM 1.0 °F -17.3 °F -8.0 °F 66% 30.62 in 10.0 mi NW 13.8 mph - N/A   Clear
9:53 PM 1.0 °F -16.6 °F -8.0 °F 66% 30.62 in 10.0 mi NW 12.7 mph - N/A   Clear
10:53 PM -0.9 °F -17.4 °F -8.0 °F 72% 30.64 in 10.0 mi WNW 10.4 mph - N/A   Clear
11:53 PM -2.9 °F -18.8 °F -9.0 °F 75% 30.63 in 10.0 mi WNW 9.2 mph - N/A   Clear